Dryden, TX

12:37 PM CDT on July 27, 2017 (GMT -0500)
Dryden

Weather History for K6R6 - August, 2014

Change the Weather History Date:

Sunday, August 24, 2014

  Actual Average (KFST) Record (KFST)
Temperature  
Mean Temperature 90 °F -  
Max Temperature 104 °F 89 °F 100 °F (2006)
Min Temperature 78 °F 67 °F 64 °F (1997)
Cooling Degree Days 25    
Growing Degree Days 40 (Base 50)    
Moisture  
Dew Point 60 °F    
Average Humidity 38    
Maximum Humidity 66    
Minimum Humidity 20    
Precipitation  
Precipitation 0.00 in - - ()
Sea Level Pressure  
Sea Level Pressure 29.80 in    
Wind  
Wind Speed 8 mph (ESE)    
Max Wind Speed 17 mph    
Max Gust Speed 25 mph    
Averages and records for this station are not official NWS values.
T = Trace of Precipitation, MM = Missing Value Source: NWS Daily Summary

Daily Weather History Graph

Daily Weather History Graph

Search for Another Location

Airport or City:

Trip Planner

Search our weather history database for the weather conditions in past years. The results will help you decide how hot, cold, wet, or windy it might be!

Date:

Astronomy

Aug. 24, 2014 Rise Set
Actual Time 7:21 AM CDT 8:20 PM CDT
Civil Twilight 6:56 AM CDT 8:45 PM CDT
Nautical Twilight 6:27 AM CDT 9:14 PM CDT
Astronomical Twilight 5:57 AM CDT 9:44 PM CDT
Moon 6:33 AM CDT (8/24) 7:42 PM CDT (8/24)
Length of Visible Light 13h 48m
Length of Day
12h 59m
Waning Crescent, 1% of the Moon is Illuminated
Aug 24
Waning Crescent
Aug 25
New
Sep 2
First Quarter
Sep 8
Full
Sep 15
Last Quarter

Hourly Weather History & Observations

Time (CDT) Temp. Heat Index Dew Point Humidity Pressure Visibility Wind Dir Wind Speed Gust Speed Precip Events Conditions
12:53 AM 89.1 °F 87.1 °F 55.0 °F 31% 29.79 in - ESE 9.2 mph - N/A   Unknown
1:53 AM 84.9 °F 83.6 °F 55.0 °F 36% 29.79 in - East 4.6 mph - N/A   Unknown
2:53 AM 82.0 °F 81.4 °F 55.0 °F 39% 29.78 in - ENE 5.8 mph - N/A   Unknown
4:53 AM 82.9 °F 84.4 °F 64.0 °F 53% 29.78 in - East 6.9 mph - N/A   Unknown
5:53 AM 81.0 °F 83.0 °F 66.0 °F 60% 29.80 in - ENE 3.5 mph - N/A   Unknown
6:53 AM 78.1 °F - 66.0 °F 66% 29.82 in - East 4.6 mph - N/A   Unknown
7:53 AM 78.1 °F - 66.0 °F 66% 29.84 in - ENE 4.6 mph - N/A   Unknown
8:53 AM 82.9 °F 85.8 °F 68.0 °F 60% 29.85 in - ESE 10.4 mph - N/A   Unknown
9:53 AM 86.0 °F 88.8 °F 66.9 °F 53% 29.85 in - ESE 8.1 mph - N/A   Unknown
10:53 AM 89.1 °F 91.3 °F 66.0 °F 46% 29.85 in - ESE 8.1 mph - N/A   Unknown
11:53 AM 93.0 °F 95.0 °F 64.9 °F 39% 29.84 in - SE 6.9 mph - N/A   Unknown
12:53 PM 96.1 °F 96.9 °F 62.1 °F 32% 29.83 in - SE 9.2 mph - N/A   Unknown
1:53 PM 99.0 °F 99.5 °F 61.0 °F 28% 29.81 in - East 8.1 mph - N/A   Unknown
2:53 PM 102.0 °F 102.7 °F 60.1 °F 25% 29.79 in - SE 13.8 mph 18.4 mph N/A   Unknown
3:53 PM 102.9 °F 103.0 °F 59.0 °F 23% 29.76 in - SSE 13.8 mph 18.4 mph N/A   Unknown
4:53 PM 102.9 °F 102.4 °F 57.0 °F 22% 29.74 in - ESE 12.7 mph 20.7 mph N/A   Unknown
5:53 PM 102.0 °F 100.1 °F 54.0 °F 20% 29.73 in - SE 13.8 mph - N/A   Unknown
6:53 PM 100.0 °F 98.8 °F 55.9 °F 23% 29.73 in - ESE 17.3 mph 25.3 mph N/A   Unknown
7:53 PM 97.0 °F 95.7 °F 57.0 °F 26% 29.74 in - ESE 16.1 mph - N/A   Unknown
8:53 PM 93.9 °F 92.6 °F 57.0 °F 29% 29.76 in - East 13.8 mph - N/A   Unknown
9:53 PM 91.9 °F 90.6 °F 57.0 °F 31% 29.79 in - East 9.2 mph - N/A   Unknown
10:53 PM 89.1 °F 87.7 °F 57.0 °F 34% 29.81 in - East 8.1 mph - N/A   Unknown
11:53 PM 88.0 °F 86.7 °F 57.0 °F 35% 29.82 in - East 6.9 mph - N/A   Unknown